Home   Weather   Taipei   Past weeks

Flag for Taiwan Past Weather in Taipei, Taiwan — Yesterday and Last 2 Weeks

82 °F

Scattered clouds.

Feels Like: 86 °F
Forecast: 77 / 88 °F
Wind: 15 mph from East

Location: Sungshan / Taipei

Current Time: Oct 24, 2016 at 1:25:15 PM

Latest Report: Oct 24, 2016 at 1:00 PM

Visibility: N/A

Pressure: 29.86 "Hg

Humidity: 66%

Dew Point: 70 °F

Location of TaipeiLocation

Past Weather in Taipei — Graph


Taipei Temperature Yesterday

Maximum temperature yesterday: 90 °F (at 10:30 AM)
Minimum temperature yesterday: 77 °F (at 7:30 PM)
Average temperature yesterday: 82 °F

High & Low Weather Summary for the Past Weeks

High91 °F (Oct 21, 1:00 PM)89% (Oct 11, 6:00 AM)30.01 "Hg (Oct 11, 6:00 AM)
Low72 °F (Oct 9, 6:00 PM)52% (Oct 20, 2:00 PM)29.62 "Hg (Oct 21, 1:00 AM)
Average81 °F74%29.85 "Hg
* Reported Oct 9 12:00 PM — Oct 24 12:00 PM, Taipei, Weather by CustomWeather, © 2016

Note: Actual official high and low records may vary slightly from our data, if they occured in-between our weather recording intervals... More about our weather records


Taipei Weather History for the Previous 24 Hours

Scroll right to see more
Time TempWeatherWind HumidityBarometerVisibility
12:00 PM
Mon, Oct 24
82 °FScattered clouds.16 mph66%29.89 "HgN/A
11:30 AM81 °FBroken clouds.14 mph74%29.92 "HgN/A
11:00 AM81 °FBroken clouds.15 mph74%29.92 "HgN/A
10:30 AM81 °FPartly sunny.15 mph70%29.92 "HgN/A
10:00 AM81 °FBroken clouds.16 mph70%29.92 "HgN/A
9:30 AM81 °FPartly sunny.17 mph70%29.95 "HgN/A
9:00 AM81 °FBroken clouds.14 mph74%29.95 "HgN/A
8:30 AM79 °FBroken clouds.15 mph74%29.92 "HgN/A
8:00 AM79 °FBroken clouds.14 mph74%29.92 "HgN/A
7:30 AM79 °FBroken clouds.14 mph74%29.92 "HgN/A
7:00 AM79 °FBroken clouds.12 mph74%29.92 "HgN/A
6:30 AM77 °FBroken clouds.12 mph79%29.92 "HgN/A
6:00 AM77 °FBroken clouds.13 mph79%29.92 "HgN/A
5:00 AM77 °FPassing clouds.10 mph79%29.89 "HgN/A
4:00 AM77 °FPartly cloudy.13 mph79%29.86 "HgN/A
3:00 AM77 °FPassing clouds.12 mph79%29.86 "HgN/A
2:00 AM77 °FPassing clouds.13 mph79%29.86 "HgN/A
1:00 AM77 °FPartly cloudy.14 mph79%29.89 "HgN/A
12:00 AM77 °FPassing clouds.13 mph79%29.89 "HgN/A
11:00 PM
Sun, Oct 23
77 °FPartly cloudy.14 mph79%29.89 "HgN/A
10:30 PM77 °FPartly cloudy.15 mph79%29.89 "HgN/A
10:00 PM77 °FPartly cloudy.12 mph79%29.89 "HgN/A
9:30 PM77 °FPassing clouds.12 mph79%29.89 "HgN/A
9:00 PM77 °FPassing clouds.12 mph74%29.89 "HgN/A
8:30 PM77 °FPassing clouds.12 mph79%29.89 "HgN/A
8:00 PM77 °FPassing clouds.13 mph74%29.89 "HgN/A
7:30 PM77 °FPartly cloudy.10 mph74%29.89 "HgN/A
7:00 PM79 °FPartly cloudy.13 mph74%29.86 "HgN/A
6:30 PM79 °FPartly cloudy.12 mph74%29.86 "HgN/A
6:00 PM79 °FPartly cloudy.9 mph74%29.83 "HgN/A
5:30 PM79 °FPartly cloudy.10 mph74%29.83 "HgN/A
5:03 PM82 °FBroken clouds.6 mph66%29.83 "HgN/A
4:30 PM82 °FPartly sunny.8 mph62%29.80 "HgN/A
4:00 PM84 °FScattered clouds.12 mph62%29.80 "HgN/A
3:30 PM84 °FScattered clouds.14 mph62%29.80 "HgN/A
3:00 PM86 °FScattered clouds.14 mph62%29.77 "HgN/A
2:30 PM84 °FPartly sunny.13 mph62%29.77 "HgN/A
2:00 PM84 °FScattered clouds.14 mph66%29.80 "HgN/A
1:30 PM86 °FScattered clouds.14 mph59%29.80 "HgN/A
1:00 PM88 °FScattered clouds.12 mph59%29.80 "HgN/A
Weather by CustomWeather, © 2016

See weather overviewHow to use our weather pages